"2009-10-09 00:00:00",1310686,4.063,140.2,7.279,1.236,2.652,99.36708,-2.313,-1.047,94.5,0,109.4,13.69,-1.57,102.2
"2009-10-09 00:00:30",1310687,4.729,146.8,5.28,1.013,3.439,99.36567,-2.316,-1.009,94.5,0,109.4,13.68,-1.57,108.8
"2009-10-09 00:01:00",1310688,4.352,145.6,6.216,1.179,2.09,99.36623,-2.315,-1.057,94.5,0,109.4,13.68,-1.57,107.6
"2009-10-09 00:01:30",1310689,3.387,142.2,5.279,0.954,0.478,99.36792,-2.311,-1.132,94.4,0,109.4,13.69,-1.57,104.2
"2009-10-09 00:02:00",1310690,4.405,147.1,5.692,1.116,2.444,99.3648,-2.319,-1.036,94.5,0,109.4,13.69,-1.57,109.1
"2009-10-09 00:02:30",1310691,4.543,148.8,5.032,1.045,3.321,99.36595,-2.316,-1.08,94.5,0,109.4,13.69,-1.57,110.8
"2009-10-09 00:03:00",1310692,4.884,149.5,5.629,0.896,3.521,99.37216,-2.3,-1.009,94.6,0,109.4,13.69,-1.56,111.5
"2009-10-09 00:03:30",1310693,4.717,146.8,5.771,0.968,3.278,99.3716,-2.301,-1.018,94.5,0,109.4,13.69,-1.56,108.8
"2009-10-09 00:04:00",1310694,4.18,144.1,6.135,1.146,2.139,99.37471,-2.293,-1.036,94.5,0,109.4,13.69,-1.55,106.1
"2009-10-09 00:04:30",1310695,3.667,140.6,5.262,1.048,0.47,99.37527,-2.292,-1.216,94.4,0,109.4,13.69,-1.55,102.6
"2009-10-09 00:05:00",1310696,4.5,145.5,5.836,1.165,2.877,99.37754,-2.286,-1.019,94.5,0,109.4,13.69,-1.54,107.5
"2009-10-09 00:05:30",1310697,4.201,147,6.069,1.222,2.748,99.38007,-2.28,-1.039,94.5,0,109.4,13.69,-1.54,109.0
"2009-10-09 00:06:00",1310698,5.205,152.5,4.301,0.423,4.536,99.37867,-2.283,-0.956,94.6,0,109.4,13.69,-1.54,114.5
"2009-10-09 00:06:30",1310699,4.568,151.1,5.02,1.135,3.241,99.37669,-2.288,-1.005,94.6,0,109.4,13.68,-1.54,113.1
"2009-10-09 00:07:00",1310700,4.248,148.7,5.932,1.207,2.374,99.37725,-2.287,-1.102,94.5,0,109.4,13.68,-1.54,110.7
"2009-10-09 00:07:30",1310701,3.674,147.7,5.973,1.158,1.19,99.37978,-2.28,-1.142,94.5,0,109.4,13.68,-1.54,109.7
"2009-10-09 00:08:00",1310702,3.033,143.8,3.777,0.824,0.179,99.38091,-2.277,-1.199,94.4,0,109.4,13.68,-1.53,105.8
"2009-10-09 00:08:30",1310703,4.205,148.7,5.583,1.229,2.823,99.37952,-2.281,-1.007,94.6,0,109.4,13.68,-1.54,110.7
"2009-10-09 00:09:00",1310704,4.971,151.5,2.552,0.826,4.21,99.37727,-2.287,-0.955,94.6,0,109.4,13.68,-1.54,113.5
"2009-10-09 00:09:30",1310705,4.953,149.9,4.498,0.787,4.219,99.37839,-2.284,-0.954,94.7,0,109.4,13.68,-1.54,111.9
"2009-10-09 00:10:00",1310706,3.999,145.8,5.845,1.189,1.741,99.37782,-2.285,-1.062,94.5,0,109.4,13.68,-1.54,107.8
"2009-10-09 00:10:30",1310707,3.716,142.5,5.817,1.139,1.19,99.38008,-2.28,-1.107,94.5,0,109.4,13.68,-1.54,104.5
"2009-10-09 00:11:00",1310708,3.793,142.2,5.519,1.17,1.254,99.37839,-2.284,-1.214,94.4,0,109.4,13.68,-1.54,104.2
"2009-10-09 00:11:30",1310709,4.534,145.8,5.586,1.073,3.229,99.37923,-2.282,-1.021,94.6,0,109.4,13.68,-1.54,107.8
"2009-10-09 00:12:00",1310710,4.699,147.7,4.74,0.912,4.116,99.37727,-2.287,-0.972,94.6,0,109.4,13.69,-1.54,109.7
"2009-10-09 00:12:30",1310711,4.694,149.2,4.67,0.766,3.999,99.37923,-2.282,-0.993,94.6,0,109.4,13.69,-1.54,111.2
"2009-10-09 00:13:00",1310712,3.77,147,6.084,1.201,2.439,99.38036,-2.279,-0.995,94.6,0,109.4,13.69,-1.53,109.0
"2009-10-09 00:13:30",1310713,3.004,144.9,3.974,0.928,0.183,99.38261,-2.273,-1.158,94.4,0,109.4,13.69,-1.53,106.9
"2009-10-09 00:14:00",1310714,2.629,142.2,2.571,0.472,-0.405,99.38008,-2.28,-1.195,94.4,0,109.4,13.69,-1.54,104.2
"2009-10-09 00:14:30",1310715,3.751,147.1,5.872,1.186,3.036,99.37979,-2.28,-0.991,94.6,0,109.4,13.69,-1.54,109.1
"2009-10-09 00:15:00",1310716,4.621,147.5,3.918,0.616,4.531,99.37894,-2.282,-0.964,94.6,0,109.4,13.69,-1.54,109.5
"2009-10-09 00:15:30",1310717,4.283,143.4,4.822,0.864,3.43,99.38091,-2.277,-1.005,94.6,0,109.4,13.69,-1.53,105.4
"2009-10-09 00:16:00",1310718,3.702,143.3,6.205,1.196,2.436,99.37952,-2.281,-1.011,94.6,0,109.4,13.69,-1.54,105.3
"2009-10-09 00:16:30",1310719,3.134,140.2,6.259,1.174,1.151,99.37782,-2.285,-1.133,94.4,0,109.4,13.69,-1.54,102.2
"2009-10-09 00:17:00",1310720,2.717,138,5.663,0.988,0.706,99.38064,-2.278,-1.046,94.5,0,109.4,13.69,-1.53,100.0
"2009-10-09 00:17:30",1310721,3.486,147.2,5.335,1.149,3.013,99.37923,-2.282,-1.035,94.6,0,109.4,13.69,-1.54,109.2
"2009-10-09 00:18:00",1310722,2.901,144.9,6.051,1.171,2.383,99.37952,-2.281,-0.991,94.6,0,109.4,13.7,-1.54,106.9
"2009-10-09 00:18:30",1310723,3.422,145.3,5.569,1.071,3.045,99.38036,-2.279,-0.958,94.6,0,109.4,13.7,-1.53,107.3
"2009-10-09 00:19:00",1310724,3.495,146.3,5.336,0.959,2.633,99.3812,-2.277,-1.061,94.5,0,109.4,13.69,-1.53,108.3
"2009-10-09 00:19:30",1310725,1.558,136.7,0.725,0.057,-0.772,99.38036,-2.279,-1.217,94.3,0,109.4,13.72,-1.53,98.7
"2009-10-09 00:20:00",1310726,1.98,140.1,3.68,0.784,-0.551,99.38261,-2.273,-1.231,94.3,0,109.4,13.7,-1.53,102.1
"2009-10-09 00:20:30",1310727,2.897,149.3,7.01,1.143,1.764,99.38064,-2.278,-1.053,94.5,0,109.4,13.7,-1.53,111.3
"2009-10-09 00:21:00",1310728,4.013,154.6,5.125,0.896,3.255,99.38091,-2.277,-1.024,94.5,0,109.4,13.7,-1.53,116.6
"2009-10-09 00:21:30",1310729,4.245,153.7,3.822,0.774,3.933,99.38176,-2.275,-0.915,94.6,0,109.4,13.7,-1.53,115.7
"2009-10-09 00:22:00",1310730,3.519,144.9,6.224,1.193,1.779,99.3812,-2.277,-1.016,94.5,0,109.4,13.7,-1.53,106.9
"2009-10-09 00:22:30",1310731,3.151,141.2,5.232,1.061,0.66,99.38261,-2.273,-1.164,94.4,0,109.4,13.7,-1.53,103.2
"2009-10-09 00:23:00",1310732,3.293,140.7,6.542,1.101,0.558,99.38176,-2.275,-1.199,94.3,0,109.4,13.69,-1.53,102.7
"2009-10-09 00:23:30",1310733,3.625,142.2,6.3,1.214,1.734,99.38036,-2.279,-0.981,94.5,0,109.4,13.69,-1.53,104.2
"2009-10-09 00:24:00",1310734,4.317,145.4,4.431,0.786,4.021,99.38036,-2.279,-0.948,94.5,0,109.4,13.69,-1.53,107.4
"2009-10-09 00:24:30",1310735,4.19,146.2,5.307,0.981,3.399,99.38261,-2.273,-0.947,94.6,0,109.5,13.69,-1.53,108.2
"2009-10-09 00:25:00",1310736,3.853,151,5.903,1.178,2.864,99.38403,-2.27,-0.973,94.5,0,109.4,13.69,-1.53,113.0
"2009-10-09 00:25:30",1310737,3.364,150.8,5.319,1.166,1.414,99.38261,-2.273,-1.097,94.4,0,109.4,13.68,-1.53,112.8
"2009-10-09 00:26:00",1310738,2.975,153.5,5.727,0.965,0.939,99.3846,-2.268,-1.048,94.4,0,109.4,13.69,-1.52,115.5
"2009-10-09 00:26:30",1310739,3.95,159.2,6.555,1.124,2.47,99.38545,-2.266,-1.072,94.4,0,109.4,13.69,-1.52,121.2
"2009-10-09 00:27:00",1310740,4.314,159.6,5.394,1.111,3.38,99.38771,-2.26,-0.953,94.5,0,109.4,13.69,-1.52,121.6
"2009-10-09 00:27:30",1310741,4.858,162.1,3.585,0.631,4.286,99.38799,-2.259,-0.904,94.6,0,109.4,13.69,-1.52,124.1
"2009-10-09 00:28:00",1310742,4.422,157.3,6.623,1.107,2.753,99.38856,-2.258,-0.982,94.5,0,109.4,13.69,-1.51,119.3
"2009-10-09 00:28:30",1310743,3.993,157,6.784,1.195,1.128,99.38375,-2.27,-1.187,94.3,0,109.4,13.69,-1.53,119.0
"2009-10-09 00:29:00",1310744,2.698,154,2.475,0.037,-0.304,99.3877,-2.26,-1.063,94.4,0,109.4,13.69,-1.52,116.0
"2009-10-09 00:29:30",1310745,4.296,162.8,5.882,1.104,2.511,99.38657,-2.263,-1.072,94.4,0,109.4,13.7,-1.52,124.8
"2009-10-09 00:30:00",1310746,4.366,164.3,5.968,1.123,2.801,99.38461,-2.268,-0.941,94.5,0,109.4,13.7,-1.52,126.3
"2009-10-09 00:30:30",1310747,4.853,166.9,3.857,0.652,3.965,99.38515,-2.267,-0.904,94.5,0,109.4,13.7,-1.52,128.9
"2009-10-09 00:31:00",1310748,4.822,164.9,4.581,0.75,3.406,99.38543,-2.266,-1.002,94.4,0,109.4,13.7,-1.52,126.9
"2009-10-09 00:31:30",1310749,3.854,160.8,6.605,1.215,1.274,99.38318,-2.272,-1.099,94.3,0,109.4,13.7,-1.53,122.8
"2009-10-09 00:32:00",1310750,2.961,156.9,3.329,0.49,-0.213,99.38345,-2.271,-1.061,94.3,0,109.4,13.7,-1.53,118.9
"2009-10-09 00:32:30",1310751,3.922,159.7,6.581,1.166,0.991,99.38515,-2.267,-1.138,94.3,0,109.4,13.7,-1.52,121.7
"2009-10-09 00:33:00",1310752,4.716,161.6,5.44,1.039,2.953,99.38515,-2.267,-0.977,94.4,0,109.4,13.7,-1.52,123.6
"2009-10-09 00:33:30",1310753,5.105,158.5,4.698,0.923,3.27,99.38543,-2.266,-0.94,94.4,0,109.4,13.7,-1.52,120.5
"2009-10-09 00:34:00",1310754,4.617,157.6,5.844,1.122,3.004,99.38374,-2.27,-0.919,94.5,0,109.4,13.7,-1.53,119.6
"2009-10-09 00:34:30",1310755,5.191,163.8,3.432,0.619,3.795,99.38628,-2.264,-0.973,94.4,0,109.4,13.7,-1.52,125.8
"2009-10-09 00:35:00",1310756,3.115,153.4,3.201,0.529,-0.322,99.38686,-2.262,-1.104,94.3,0,109.4,13.7,-1.52,115.4
"2009-10-09 00:35:30",1310757,3.71,156.4,5.847,1.06,0.668,99.38742,-2.261,-1.054,94.3,0,109.4,13.7,-1.52,118.4
"2009-10-09 00:36:00",1310758,4.595,161.2,6.34,1.174,1.855,99.38855,-2.258,-1.046,94.3,0,109.4,13.7,-1.51,123.2
"2009-10-09 00:36:30",1310759,4.884,163.9,4.891,0.973,3.589,99.39223,-2.249,-0.93,94.5,0,109.4,13.7,-1.50,125.9
"2009-10-09 00:37:00",1310760,4.459,164.4,5.524,1.092,3.381,99.39054,-2.253,-0.929,94.5,0,109.4,13.7,-1.51,126.4
"2009-10-09 00:37:30",1310761,4.746,168.1,4.158,0.926,3.65,99.39224,-2.249,-0.934,94.5,0,109.4,13.7,-1.50,130.1
"2009-10-09 00:38:00",1310762,3.475,160.1,5.571,1.027,0.895,99.39223,-2.249,-0.993,94.4,0,109.4,13.7,-1.50,122.1
"2009-10-09 00:38:30",1310763,4.613,164.2,5.833,1.102,2.003,99.38969,-2.255,-1.046,94.3,0,109.4,13.7,-1.51,126.2
"2009-10-09 00:39:00",1310764,3.701,160.3,5.427,1.136,0.614,99.39168,-2.25,-1.032,94.3,0,109.4,13.69,-1.51,122.3
"2009-10-09 00:39:30",1310765,4.617,164.4,5.845,1.104,2.993,99.39478,-2.242,-0.927,94.4,0,109.4,13.69,-1.50,126.4
"2009-10-09 00:40:00",1310766,5.057,168.1,4.416,0.787,4.323,99.39309,-2.246,-0.918,94.5,0,109.4,13.69,-1.50,130.1
"2009-10-09 00:40:30",1310767,4.952,169,4.871,0.905,3.751,99.39507,-2.241,-0.967,94.4,0,109.4,13.69,-1.50,131.0
"2009-10-09 00:41:00",1310768,4.031,165.9,5.852,1.181,1.803,99.39818,-2.233,-0.973,94.4,0,109.4,13.69,-1.49,127.9
"2009-10-09 00:41:30",1310769,3.944,166.1,6.221,1.181,1.084,99.39846,-2.233,-1.033,94.3,0,109.4,13.68,-1.49,128.1
"2009-10-09 00:42:00",1310770,3.84,162.4,4.844,1.11,0.889,99.39846,-2.233,-1.007,94.4,0,109.4,13.69,-1.49,124.4
"2009-10-09 00:42:30",1310771,4.354,162.1,6.192,1.116,1.719,99.39619,-2.239,-1.013,94.4,0,109.4,13.69,-1.49,124.1
"2009-10-09 00:43:00",1310772,4.848,165.3,5.276,1.084,3.347,99.39507,-2.241,-0.897,94.5,0,109.4,13.69,-1.50,127.3
"2009-10-09 00:43:30",1310773,4.942,165.1,5.6,1.073,3.044,99.39706,-2.236,-0.979,94.4,0,109.4,13.69,-1.49,127.1
"2009-10-09 00:44:00",1310774,4.952,164.9,5.268,0.997,2.886,99.40044,-2.228,-0.954,94.4,0,109.4,13.69,-1.48,126.9
"2009-10-09 00:44:30",1310775,4.057,162,6.107,1.176,1.314,99.40015,-2.228,-1.078,94.3,0,109.4,13.69,-1.48,124.0
"2009-10-09 00:45:00",1310776,4.097,162.2,6.016,1.138,1.724,99.40128,-2.226,-0.966,94.4,0,109.4,13.7,-1.48,124.2
"2009-10-09 00:45:30",1310777,3.447,158.3,5.565,1.066,0.483,99.401,-2.226,-1.068,94.3,0,109.4,13.7,-1.48,120.3
"2009-10-09 00:46:00",1310778,4.551,167.2,4.536,1.089,3.541,99.39988,-2.229,-0.875,94.5,0,109.4,13.7,-1.48,129.2
"2009-10-09 00:46:30",1310779,4.438,166.6,6.416,1.123,2.922,99.40157,-2.225,-0.93,94.5,0,109.4,13.7,-1.48,128.6
"2009-10-09 00:47:00",1310780,4.852,167.1,4.398,0.747,3.55,99.40327,-2.221,-1.007,94.4,0,109.4,13.7,-1.48,129.1
"2009-10-09 00:47:30",1310781,3.159,159.9,5.614,0.961,0.515,99.40355,-2.22,-1.027,94.4,0,109.4,13.7,-1.48,121.9
"2009-10-09 00:48:00",1310782,4.47,167.7,5.538,0.928,2.725,99.40355,-2.22,-1.013,94.4,0,109.4,13.7,-1.48,129.7
"2009-10-09 00:48:30",1310783,2.74,160.5,4.381,0.723,0.155,99.40525,-2.215,-1.035,94.4,0,109.4,13.7,-1.47,122.5
"2009-10-09 00:49:00",1310784,3.886,166.6,5.592,1.164,2.345,99.40186,-2.224,-1.008,94.4,0,109.4,13.7,-1.48,128.6
"2009-10-09 00:49:30",1310785,4.147,168.9,5.702,1.028,3.231,99.40694,-2.211,-0.936,94.5,0,109.4,13.7,-1.47,130.9
"2009-10-09 00:50:00",1310786,4.171,169.4,4.968,1.123,2.901,99.40865,-2.207,-0.927,94.5,0,109.4,13.7,-1.46,131.4
"2009-10-09 00:50:30",1310787,3.422,164.7,6.121,1.162,1.195,99.40526,-2.215,-0.981,94.4,0,109.4,13.7,-1.47,126.7
"2009-10-09 00:51:00",1310788,4.179,167.2,5.284,1.111,2.432,99.40384,-2.219,-0.982,94.4,0,109.4,13.7,-1.47,129.2
"2009-10-09 00:51:30",1310789,3.22,160.8,5.082,0.933,0.283,99.40666,-2.212,-1.073,94.3,0,109.5,13.7,-1.47,122.8
"2009-10-09 00:52:00",1310790,3.983,166,6.502,1.213,1.685,99.4044,-2.218,-0.937,94.5,0,109.4,13.7,-1.47,128.0
"2009-10-09 00:52:30",1310791,4.754,170.9,5.019,0.988,3.328,99.40214,-2.223,-0.945,94.5,0,109.4,13.7,-1.48,132.9
"2009-10-09 00:53:00",1310792,4.724,168.8,5.433,1.025,3.048,99.40327,-2.221,-0.94,94.5,0,109.4,13.7,-1.48,130.8
"2009-10-09 00:53:30",1310793,4.71,168.7,4.957,1.035,2.924,99.40412,-2.218,-0.945,94.5,0,109.4,13.7,-1.47,130.7
"2009-10-09 00:54:00",1310794,4.242,166.7,6.141,1.148,1.932,99.4061,-2.213,-1.064,94.4,0,109.4,13.7,-1.47,128.7
"2009-10-09 00:54:30",1310795,3.806,163.2,5.58,1.159,0.899,99.40639,-2.213,-1.077,94.4,0,109.4,13.7,-1.47,125.2
"2009-10-09 00:55:00",1310796,3.501,164.2,5.995,1.01,1.054,99.40666,-2.212,-0.993,94.5,0,109.4,13.7,-1.47,126.2
"2009-10-09 00:55:30",1310797,5.021,173.5,4.436,0.828,3.614,99.40836,-2.208,-0.965,94.4,0,109.4,13.7,-1.46,135.5
"2009-10-09 00:56:00",1310798,4.315,172.2,6.036,1.18,3.044,99.40582,-2.214,-0.901,94.5,0,109.4,13.7,-1.47,134.2
"2009-10-09 00:56:30",1310799,4.591,173.8,5.548,1.027,3.341,99.4095,-2.205,-0.929,94.5,0,109.4,13.69,-1.46,135.8
"2009-10-09 00:57:00",1310800,3.949,169.5,5.896,1.192,1.689,99.41431,-2.192,-0.985,94.4,0,109.4,13.69,-1.45,131.5
"2009-10-09 00:57:30",1310801,3.4,167,5.51,1.008,0.385,99.41714,-2.185,-1.057,94.4,0,109.5,13.69,-1.44,129.0
"2009-10-09 00:58:00",1310802,3.874,168.6,5.973,1.195,1.764,99.41687,-2.186,-0.927,94.5,0,109.4,13.69,-1.44,130.6
"2009-10-09 00:58:30",1310803,4.962,171.5,5.056,0.893,3.168,99.42083,-2.176,-0.936,94.5,0,109.4,13.69,-1.43,133.5
"2009-10-09 00:59:00",1310804,5.107,171.5,4.663,0.977,3.499,99.42111,-2.175,-0.865,94.6,0,109.4,13.69,-1.43,133.5
"2009-10-09 00:59:30",1310805,5.425,171.6,4.392,0.709,3.735,99.42055,-2.176,-0.861,94.6,0,109.4,13.69,-1.43,133.6
"2009-10-09 01:00:00",1310806,3.931,163.4,4.746,1.008,0.652,99.42168,-2.174,-1.041,94.4,0,109.4,13.69,-1.43,125.4
"2009-10-09 01:00:30",1310807,4.25,164.2,5.766,1.178,0.76,99.42197,-2.173,-1.096,94.4,0,109.4,13.69,-1.43,126.2
"2009-10-09 01:01:00",1310808,4.834,169.2,6.461,1.151,2.275,99.42168,-2.174,-0.938,94.6,0,109.4,13.7,-1.43,131.2
"2009-10-09 01:01:30",1310809,4.431,169.2,6.299,1.242,2.235,99.42168,-2.174,-0.905,94.6,0,109.4,13.7,-1.43,131.2
"2009-10-09 01:02:00",1310810,5.05,176.4,3.737,0.906,3.914,99.42112,-2.175,-0.874,94.6,0,109.4,13.7,-1.43,138.4
"2009-10-09 01:02:30",1310811,5.055,175.7,4.795,0.82,3.582,99.42083,-2.176,-0.876,94.6,0,109.4,13.7,-1.43,137.7
"2009-10-09 01:03:00",1310812,4.315,172.9,5.881,1.19,2.224,99.42083,-2.176,-0.955,94.6,0,109.4,13.7,-1.43,134.9
"2009-10-09 01:03:30",1310813,4.088,170.4,4.333,1.116,0.906,99.42197,-2.173,-1.056,94.4,0,109.4,13.7,-1.43,132.4
"2009-10-09 01:04:00",1310814,3.863,171.1,4.619,0.951,0.313,99.42197,-2.173,-0.982,94.5,0,109.4,13.7,-1.43,133.1
"2009-10-09 01:04:30",1310815,5.07,181.6,5.655,1.158,2.645,99.42197,-2.173,-0.922,94.6,0,109.4,13.7,-1.43,143.6
"2009-10-09 01:05:00",1310816,5.946,190.6,2.291,0.641,4.105,99.4214,-2.174,-0.891,94.6,0,109.4,13.7,-1.43,152.6
"2009-10-09 01:05:30",1310817,5.401,185.1,5.502,1.031,2.894,99.42083,-2.176,-0.909,94.6,0,109.4,13.7,-1.43,147.1
"2009-10-09 01:06:00",1310818,5.021,183,6.452,1.205,2.733,99.42112,-2.175,-0.883,94.7,0,109.4,13.7,-1.43,145.0
"2009-10-09 01:06:30",1310819,4.535,175.5,5.475,1.164,1.501,99.42197,-2.173,-0.947,94.6,0,109.4,13.7,-1.43,137.5
"2009-10-09 01:07:00",1310820,4.711,172.4,6.151,1.287,1.31,99.42252,-2.171,-1.003,94.6,0,109.4,13.7,-1.43,134.4
"2009-10-09 01:07:30",1310821,4.834,174.1,7.139,1.178,2.208,99.42706,-2.16,-0.956,94.6,0,109.4,13.7,-1.42,136.1
"2009-10-09 01:08:00",1310822,5.935,176.6,4.945,0.854,3.472,99.43556,-2.138,-0.838,94.8,0,109.5,13.7,-1.39,138.6
"2009-10-09 01:08:30",1310823,5.553,177,6.178,1.06,3.737,99.45002,-2.101,-0.786,94.8,0,109.4,13.7,-1.36,139.0
"2009-10-09 01:09:00",1310824,5.854,178.1,4.774,0.941,3.891,99.45512,-2.088,-0.831,94.8,0,109.4,13.7,-1.34,140.1
"2009-10-09 01:09:30",1310825,6.018,178.9,3.852,0.842,3.489,99.45569,-2.087,-0.823,94.8,0,109.4,13.7,-1.34,140.9
"2009-10-09 01:10:00",1310826,4.738,172.3,5.967,1.196,0.833,99.45596,-2.086,-0.95,94.7,0,109.4,13.7,-1.34,134.3
"2009-10-09 01:10:30",1310827,4.811,173.2,7.092,1.249,1.271,99.45596,-2.086,-0.934,94.7,0,109.4,13.7,-1.34,135.2
"2009-10-09 01:11:00",1310828,4.762,172.5,6.306,1.194,1.833,99.45569,-2.087,-0.824,94.8,0,109.4,13.7,-1.34,134.5
"2009-10-09 01:11:30",1310829,5.551,175.3,5.308,1.037,3.422,99.45569,-2.087,-0.823,94.8,0,109.4,13.7,-1.34,137.3
"2009-10-09 01:12:00",1310830,5.823,180.4,3.112,0.829,4.2,99.45569,-2.087,-0.758,94.9,0,109.4,13.69,-1.34,142.4
"2009-10-09 01:12:30",1310831,5.789,180.6,3.001,0.744,3.998,99.45596,-2.086,-0.744,94.9,0,109.4,13.69,-1.34,142.6
"2009-10-09 01:13:00",1310832,4.631,174.4,5.565,1.174,1.539,99.45596,-2.086,-0.98,94.7,0,109.4,13.69,-1.34,136.4
"2009-10-09 01:13:30",1310833,4.768,177.9,5.973,1.133,1.239,99.45596,-2.086,-0.89,94.8,0,109.4,13.69,-1.34,139.9
"2009-10-09 01:14:00",1310834,4.976,178,6.151,1.145,1.902,99.45596,-2.086,-0.925,94.8,0,109.4,13.69,-1.34,140.0
"2009-10-09 01:14:30",1310835,5.84,182.7,5.022,0.947,3.957,99.45541,-2.088,-0.727,95,0,109.4,13.69,-1.34,144.7
"2009-10-09 01:15:00",1310836,6.038,181.9,3.927,0.638,4.49,99.45596,-2.086,-0.73,95,0,109.4,13.69,-1.34,143.9
"2009-10-09 01:15:30",1310837,6.077,182.8,3.712,0.642,4.32,99.45596,-2.086,-0.722,95,0,109.4,13.69,-1.34,144.8
"2009-10-09 01:16:00",1310838,5.235,177.5,5.421,1.163,2.513,99.45625,-2.086,-0.87,94.9,0,109.4,13.69,-1.34,139.5
"2009-10-09 01:16:30",1310839,4.473,172.8,6.21,1.117,1.006,99.45625,-2.086,-0.857,94.9,0,109.4,13.69,-1.34,134.8
"2009-10-09 01:17:00",1310840,4.73,173.9,6.019,1.162,0.929,99.45625,-2.086,-0.958,94.8,0,109.4,13.69,-1.34,135.9
"2009-10-09 01:17:30",1310841,5.519,177.7,5.168,1.047,3.3,99.45596,-2.086,-0.791,95,0,109.4,13.7,-1.34,139.7
"2009-10-09 01:18:00",1310842,6.189,177.5,4.274,0.546,4.356,99.45654,-2.085,-0.741,95,0,109.4,13.7,-1.34,139.5
"2009-10-09 01:18:30",1310843,5.561,177.1,4.993,1.046,3.246,99.45682,-2.084,-0.746,95,0,109.4,13.7,-1.34,139.1
"2009-10-09 01:19:00",1310844,5.436,175.9,5.227,1.072,3.173,99.45625,-2.086,-0.809,95,0,109.4,13.7,-1.34,137.9
"2009-10-09 01:19:30",1310845,4.776,174.5,6.75,1.191,2.291,99.45654,-2.085,-0.807,95,0,109.4,13.7,-1.34,136.5
"2009-10-09 01:20:00",1310846,4.444,175.2,6.31,1.162,1.852,99.45625,-2.086,-0.866,94.9,0,109.4,13.7,-1.34,137.2
"2009-10-09 01:20:30",1310847,5.12,178,5.052,1.048,2.678,99.45625,-2.086,-0.849,95,0,109.4,13.7,-1.34,140.0
"2009-10-09 01:21:00",1310848,4.901,176.6,5.598,1.177,2.826,99.45625,-2.086,-0.731,95.1,0,109.4,13.7,-1.34,138.6
"2009-10-09 01:21:30",1310849,5.073,176,5.958,1.167,2.826,99.45569,-2.087,-0.842,95,0,109.4,13.7,-1.34,138.0
"2009-10-09 01:22:00",1310850,4.794,176.3,5.062,1.137,2.934,99.45625,-2.086,-0.782,95.1,0,109.4,13.7,-1.34,138.3
"2009-10-09 01:22:30",1310851,4.356,173.5,5.964,1.114,1.906,99.45596,-2.086,-0.855,95,0,109.4,13.7,-1.34,135.5
"2009-10-09 01:23:00",1310852,5.013,177.1,5.774,1.055,3.224,99.45596,-2.086,-0.83,95.1,0,109.4,13.7,-1.34,139.1
"2009-10-09 01:23:30",1310853,4.396,171.7,6.336,1.173,1.715,99.45596,-2.086,-0.793,95.1,0,109.4,13.7,-1.34,133.7
"2009-10-09 01:24:00",1310854,5.305,172.2,5.256,1.051,3.225,99.45596,-2.086,-0.772,95.1,0,109.4,13.7,-1.34,134.2
"2009-10-09 01:24:30",1310855,5.007,169.5,5.144,1.213,2.618,99.45541,-2.088,-0.776,95.1,0,109.4,13.7,-1.34,131.5
"2009-10-09 01:25:00",1310856,5.513,178.4,4.832,1.035,3.533,99.45625,-2.086,-0.79,95.1,0,109.4,13.7,-1.34,140.4
"2009-10-09 01:25:30",1310857,5.508,177.9,5.87,0.943,3.741,99.45569,-2.087,-0.797,95.2,0,109.4,13.7,-1.34,139.9
"2009-10-09 01:26:00",1310858,4.989,171.1,5.38,1.121,2.657,99.45569,-2.087,-0.784,95.2,0,109.4,13.7,-1.34,133.1
"2009-10-09 01:26:30",1310859,4.508,170.8,6.199,1.123,0.936,99.45596,-2.086,-0.909,95.1,0,109.4,13.7,-1.34,132.8
"2009-10-09 01:27:00",1310860,4.513,175.6,7.08,1.175,1.924,99.45569,-2.087,-0.879,95.1,0,109.4,13.7,-1.34,137.6
"2009-10-09 01:27:30",1310861,5.257,173.3,6.74,1.049,2.875,99.45596,-2.086,-0.769,95.2,0,109.4,13.7,-1.34,135.3
"2009-10-09 01:28:00",1310862,6.013,173.8,4.484,0.857,3.768,99.45569,-2.087,-0.797,95.2,0,109.4,13.69,-1.34,135.8
"2009-10-09 01:28:30",1310863,5.887,170.7,5.12,0.983,3.61,99.45512,-2.088,-0.763,95.2,0,109.4,13.69,-1.34,132.7
"2009-10-09 01:29:00",1310864,5.724,174.8,4.686,0.959,3.988,99.45541,-2.088,-0.763,95.3,0,109.4,13.69,-1.34,136.8
"2009-10-09 01:29:30",1310865,5.279,175,5.76,1.15,3.101,99.45484,-2.089,-0.722,95.3,0,109.4,13.69,-1.34,137.0
"2009-10-09 01:30:00",1310866,4.295,171.8,7.556,1.121,1.292,99.45596,-2.086,-0.947,95.1,0,109.4,13.69,-1.34,133.8
"2009-10-09 01:30:30",1310867,4.778,170.5,6.684,1.177,2.076,99.45569,-2.087,-0.788,95.3,0,109.4,13.69,-1.34,132.5
"2009-10-09 01:31:00",1310868,5.072,171.8,6.171,1.119,2.375,99.45512,-2.088,-0.949,95.1,0,109.4,13.69,-1.34,133.8
"2009-10-09 01:31:30",1310869,5.427,176.8,4.791,0.908,4.143,99.45596,-2.086,-0.768,95.3,0,109.4,13.69,-1.34,138.8
"2009-10-09 01:32:00",1310870,5.522,176.8,4.052,0.904,3.758,99.45569,-2.087,-0.779,95.3,0,109.4,13.69,-1.34,138.8
"2009-10-09 01:32:30",1310871,5.596,177.6,3.494,0.66,3.836,99.45569,-2.087,-0.737,95.4,0,109.4,13.69,-1.34,139.6
"2009-10-09 01:33:00",1310872,4.415,171.8,5.794,1.185,1.178,99.45569,-2.087,-0.971,95.2,0,109.4,13.69,-1.34,133.8
"2009-10-09 01:33:30",1310873,4.537,174.8,7.967,1.23,1.232,99.45569,-2.087,-0.895,95.2,0,109.4,13.69,-1.34,136.8
"2009-10-09 01:34:00",1310874,3.515,169.6,4.711,0.118,0.045,99.45596,-2.086,-0.928,95.2,0,109.4,13.7,-1.34,131.6
"2009-10-09 01:34:30",1310875,5.945,187.6,4.545,0.678,4.322,99.45569,-2.087,-0.768,95.4,0,109.4,13.7,-1.34,149.6
"2009-10-09 01:35:00",1310876,5.879,186.2,2.855,0.863,4.233,99.45569,-2.087,-0.727,95.4,0,109.4,13.7,-1.34,148.2
"2009-10-09 01:35:30",1310877,5.926,187.8,5.063,0.72,3.703,99.45541,-2.088,-0.804,95.4,0,109.5,13.7,-1.34,149.8
"2009-10-09 01:36:00",1310878,4.795,180.7,6.349,1.275,1.498,99.45569,-2.087,-0.887,95.3,0,109.4,13.7,-1.34,142.7
"2009-10-09 01:36:30",1310879,4.324,177.3,6.997,1.095,0.728,99.45596,-2.086,-0.931,95.3,0,109.4,13.7,-1.34,139.3
"2009-10-09 01:37:00",1310880,4.403,178.9,8.2,1.077,1.347,99.45541,-2.088,-0.936,95.3,0,109.4,13.7,-1.34,140.9
"2009-10-09 01:37:30",1310881,5.226,187.4,6.391,1.175,3.359,99.45541,-2.088,-0.799,95.4,0,109.4,13.7,-1.34,149.4
"2009-10-09 01:38:00",1310882,5.588,186.4,3.987,0.714,3.986,99.45512,-2.088,-0.754,95.5,0,109.4,13.7,-1.34,148.4
"2009-10-09 01:38:30",1310883,5.184,181.7,6.141,1.012,3.414,99.45569,-2.087,-0.812,95.4,0,109.4,13.7,-1.34,143.7
"2009-10-09 01:39:00",1310884,4.59,179.3,7.569,1.121,1.908,99.45541,-2.088,-0.916,95.3,0,109.4,13.7,-1.34,141.3
"2009-10-09 01:39:30",1310885,3.373,172.1,4.634,0.608,-0.36,99.45541,-2.088,-0.94,95.3,0,109.4,13.7,-1.34,134.1
"2009-10-09 01:40:00",1310886,3.836,177.6,3.21,0.699,0,99.45569,-2.087,-0.931,95.4,0,109.4,13.7,-1.34,139.6
"2009-10-09 01:40:30",1310887,5.838,178.7,4.677,0.7,4.051,99.45541,-2.088,-0.756,95.5,0,109.4,13.7,-1.34,140.7
"2009-10-09 01:41:00",1310888,5.849,179.4,3.728,0.651,4.353,99.45484,-2.089,-0.775,95.5,0,109.4,13.7,-1.34,141.4
"2009-10-09 01:41:30",1310889,5.665,178.7,4.237,0.665,4.15,99.45512,-2.088,-0.781,95.5,0,109.4,13.7,-1.34,140.7
"2009-10-09 01:42:00",1310890,5.16,175.3,4.954,0.984,2.907,99.45541,-2.088,-0.889,95.4,0,109.4,13.7,-1.34,137.3
"2009-10-09 01:42:30",1310891,4.296,171.1,6.036,1.1,1.027,99.45568,-2.087,-0.963,95.3,0,109.4,13.7,-1.34,133.1
"2009-10-09 01:43:00",1310892,3.195,168.3,3.223,0.627,-0.164,99.452,-2.096,-0.945,95.4,0,109.4,13.7,-1.35,130.3
"2009-10-09 01:43:30",1310893,5.425,177.9,6.107,0.946,3.566,99.44747,-2.108,-0.782,95.5,0,109.4,13.7,-1.36,139.9
"2009-10-09 01:44:00",1310894,5.763,179,5.215,0.824,4.023,99.44917,-2.104,-0.8,95.5,0,109.4,13.69,-1.36,141.0
"2009-10-09 01:44:30",1310895,5.655,172.7,3.332,0.654,4.002,99.4486,-2.105,-0.763,95.5,0,109.4,13.69,-1.36,134.7
"2009-10-09 01:45:00",1310896,4.892,171.6,6.767,1.195,2.505,99.44662,-2.11,-0.837,95.5,0,109.4,13.69,-1.37,133.6
"2009-10-09 01:45:30",1310897,5.138,168.3,7.992,1.016,1.722,99.43982,-2.127,-0.98,95.4,0,109.4,13.69,-1.38,130.3
"2009-10-09 01:46:00",1310898,4.966,171.9,5.24,1.279,1.398,99.42847,-2.156,-0.928,95.5,0,109.4,13.69,-1.41,133.9